Dewpoint
63 63 65 65 65 66 67 67 68 68 67 68 68 66 65 66 68 70 70 70 71 71 71 70 71 71 69 71 71 70 70 70 71 70 69 70 70 70 70 70 70 69 68
62 61 63 65 65 65 65 65 67 68 68 69 67 67 66 66 66 69 71 71 72 71 71 71 71 71 69 70 70 70 69 68 71 68 67 64 67 70 70 70 70 69 68
62 61 61 62 65 65 64 65 67 66 67 69 69 70 71 70 68 68 71 71 71 72 71 71 71 71 70 70 70 69 69 67 69 68 66 64 63 66 70 70 69 69 69
62 61 61 62 63 66 66 68 69 67 68 69 68 67 68 68 68 68 70 72 71 71 71 71 72 71 71 70 71 70 69 69 67 69 69 68 67 64 63 68 68 69 69
61 61 61 62 62 64 69 69 69 70 71 69 68 67 67 68 69 69 70 71 72 72 72 72 72 72 71 70 70 71 69 69 68 68 68 67 68 68 66 63 66 68 69
60 62 62 63 63 65 67 69 69 69 71 72 69 68 68 69 70 69 70 72 71 71 73 72 72 72 71 70 70 70 70 70 69 69 69 68 67 67 67 66 65 66 68
60 61 62 63 64 64 66 70 70 69 70 71 72 71 71 70 70 70 70 71 71 71 71 72 71 71 71 71 70 70 69 69 69 70 70 70 69 69 68 67 66 66 67
60 61 62 62 63 64 66 68 70 70 70 71 71 71 72 71 70 71 71 71 71 72 71 72 72 71 71 70 69 68 68 68 69 69 70 70 70 70 69 68 67 64 66
60 61 62 62 62 64 65 69 70 71 71 71 72 72 71 73 73 72 71 72 71 71 71 72 71 70 70 70 69 68 68 70 70 70 71 70 70 71 71 71 69 67 63
59 60 61 62 63 63 65 67 70 71 72 72 73 73 74 74 74 73 71 72 71 71 71 71 71 70 70 70 69 69 69 70 70 70 71 70 71 71 71 71 71 69 67
54 56 58 61 61 63 65 66 70 71 72 73 73 74 75 75 75 74 73 72 72 72 71 71 70 70 70 70 70 69 70 70 70 71 71 71 71 70 71 71 70 69 68
48 52 54 58 62 64 66 68 71 72 73 74 74 75 75 75 74 73 73 73 72 72 72 71 71 71 71 70 70 70 70 70 70 71 70 70 71 70 70 71 70 69 69
47 50 55 59 61 64 66 70 72 73 73 73 73 73 74 74 73 73 73 72 72 72 72 72 71 71 71 71 71 71 71 71 71 70 70 69 69 70 70 70 70 70 70
47 52 55 58 60 63 64 68 70 71 71 70 71 72 72 72 72 72 72 72 72 72 71 71 71 71 71 71 71 72 71 71 71 70 69 69 69 70 69 70 70 70 70
45 54 57 59 63 65 66 66 67 69 70 70 71 71 72 72 71 71 72 72 71 71 71 71 71 71 71 72 71 71 71 70 69 68 68 70 70 70 69 69 69 68 69
48 54 57 61 65 66 67 67 67 69 70 69 70 72 71 71 71 71 71 71 71 70 70 71 71 71 72 69 69 71 71 69 68 66 66 69 69 69 68 68 67 68 67
52 54 59 63 66 67 67 67 68 70 70 69 70 71 71 70 70 71 71 70 70 70 70 71 71 70 71 68 67 70 70 68 68 66 66 67 68 68 67 67 67 67 67
58 60 63 64 67 69 69 70 71 71 72 70 71 72 71 71 71 71 71 70 71 71 71 71 71 71 71 67 66 67 70 68 67 67 66 66 66 66 66 66 66 66 67
56 55 63 67 70 70 71 73 72 71 72 71 73 72 72 72 72 71 71 71 72 71 71 72 71 71 71 65 64 66 68 68 67 67 66 66 65 64 63 64 63 64 65
57 65 67 69 71 71 72 73 72 71 71 72 72 73 72 71 72 72 72 72 72 72 73 72 72 69 70 65 62 65 68 68 68 68 67 65 65 62 62 64 63 62 63
66 70 71 71 71 72 73 72 73 71 71 72 72 73 73 72 72 72 72 72 72 71 70 70 70 70 69 68 62 60 66 67 67 69 69 69 62 60 59 61 64 63 63
69 69 69 70 72 74 74 72 72 73 73 73 73 73 73 73 73 72 70 70 70 69 68 68 68 69 69 64 61 61 60 63 67 67 68 69 61 59 59 60 61 61 62
67 66 66 67 69 70 70 70 70 71 73 73 73 72 72 73 73 71 70 67 67 67 68 68 68 67 69 68 61 60 60 60 61 63 63 60 58 59 60 60 61 58 59
66 67 68 68 68 68 69 69 70 70 71 71 70 70 68 67 68 69 69 68 67 66 65 65 65 66 65 65 66 64 62 61 62 61 60 60 60 60 62 61 61 61 59
68 68 68 67 66 67 67 67 67 68 68 68 69 67 66 65 65 64 64 64 63 64 63 63 64 64 64 64 61 62 66 65 63 61 61 60 60 60 59 59 60 59 59
66 67 66 67 67 67 66 66 66 66 66 66 65 66 66 64 63 63 63 57 56 54 52 50 57 63 56 52 50 49 48 50 53 60 61 60 60 60 60 60 59 58 58
Lifted_Index
-3 -3 -3 -4 -4 -4 -4 -4 -3 -3 -3 -3 -3 -2 -2 -2 -2 -3 -3 -3 -3 -2 -2 -2 -2 -1 -1 -1 -1 -1 -1 -1 -1 -1 -1 -1 -1 -1 -1 -0 -0 -0 -0
-4 -3 -3 -3 -4 -4 -4 -4 -3 -3 -3 -3 -3 -2 -2 -2 -2 -2 -3 -3 -3 -2 -2 -2 -2 -1 -1 -1 -1 -1 -1 -1 -1 -1 -1 -1 -1 -1 -1 -1 -1 -1 -0
-4 -4 -3 -3 -3 -3 -4 -4 -4 -3 -3 -3 -3 -2 -2 -2 -2 -2 -2 -3 -3 -3 -2 -2 -2 -2 -2 -1 -1 -1 -1 -1 -1 -1 -1 -0 -0 -1 -1 -1 -1 -1 -1
-4 -4 -3 -3 -3 -3 -3 -4 -4 -3 -3 -3 -3 -3 -3 -2 -2 -2 -3 -3 -3 -3 -3 -3 -2 -2 -2 -1 -1 -1 -1 -1 -1 -1 -1 -1 -1 -1 -1 -1 -1 -1 -1
-4 -4 -4 -4 -4 -4 -4 -4 -4 -4 -4 -3 -3 -3 -3 -3 -3 -3 -3 -3 -4 -4 -3 -3 -3 -3 -3 -2 -1 -1 -1 -1 -1 -1 -1 -1 -1 -1 -1 -1 -1 -1 -1
-4 -4 -4 -4 -4 -4 -4 -4 -4 -4 -4 -4 -4 -4 -3 -4 -4 -4 -4 -4 -4 -4 -4 -4 -3 -3 -3 -2 -1 -1 -1 -1 -1 -1 -1 -1 -1 -1 -1 -1 -1 -1 -1
-5 -5 -5 -4 -4 -4 -4 -4 -4 -4 -4 -4 -4 -4 -4 -4 -4 -4 -4 -4 -4 -4 -4 -4 -4 -3 -3 -2 -1 -1 -1 -0 -1 -1 -1 -1 -1 -1 -1 -1 -1 -1 -1
-5 -5 -5 -5 -5 -5 -5 -5 -5 -4 -4 -4 -4 -4 -5 -5 -5 -5 -5 -5 -5 -4 -4 -4 -4 -3 -3 -2 -2 -1 -0 -0 -0 -0 -1 -1 -1 -1 -1 -1 -1 -1 -1
-6 -6 -5 -5 -5 -5 -5 -5 -5 -5 -5 -5 -5 -5 -5 -6 -6 -6 -5 -5 -5 -5 -5 -4 -4 -4 -3 -2 -2 -1 -0 -0 -0 -1 -1 -1 -2 -2 -2 -1 -1 -1 -1
-6 -5 -5 -5 -5 -5 -5 -5 -5 -6 -6 -6 -6 -6 -6 -7 -7 -7 -6 -6 -6 -5 -5 -5 -4 -4 -3 -3 -2 -1 -1 -1 -1 -1 -1 -2 -2 -2 -2 -2 -2 -1 -1
-5 -5 -4 -4 -5 -5 -5 -5 -6 -6 -6 -7 -7 -7 -8 -8 -8 -8 -7 -7 -6 -6 -5 -5 -5 -4 -4 -3 -2 -2 -1 -1 -1 -2 -2 -2 -2 -2 -2 -2 -2 -2 -1
-4 -4 -4 -4 -4 -5 -5 -5 -6 -7 -7 -7 -8 -8 -8 -8 -8 -8 -7 -7 -6 -6 -5 -5 -5 -4 -4 -3 -3 -2 -2 -2 -2 -2 -2 -2 -2 -2 -2 -2 -2 -2 -1
-2 -3 -4 -4 -4 -5 -5 -6 -6 -7 -7 -8 -8 -8 -8 -8 -7 -7 -7 -6 -6 -6 -6 -5 -5 -4 -4 -4 -3 -3 -3 -3 -3 -3 -3 -2 -2 -2 -1 -2 -2 -2 -1
-2 -2 -3 -4 -4 -5 -5 -5 -6 -7 -7 -7 -7 -7 -7 -7 -7 -6 -6 -6 -6 -6 -6 -5 -5 -5 -4 -4 -4 -4 -4 -3 -3 -3 -3 -2 -2 -1 -1 -2 -2 -1 -1
-2 -2 -3 -4 -5 -5 -5 -5 -5 -6 -6 -6 -6 -6 -7 -6 -6 -6 -6 -6 -6 -6 -6 -5 -5 -5 -5 -5 -5 -5 -4 -4 -4 -3 -2 -1 -1 -1 -1 -1 -1 -1 -1
-2 -3 -4 -5 -5 -5 -5 -5 -5 -5 -6 -6 -6 -6 -6 -6 -6 -6 -6 -6 -6 -6 -5 -5 -5 -6 -6 -6 -6 -6 -5 -5 -4 -3 -2 -1 -1 -1 -1 -1 -1 -1 -1
-3 -4 -4 -5 -6 -6 -6 -5 -5 -5 -6 -6 -6 -7 -7 -7 -6 -6 -6 -6 -5 -5 -5 -5 -6 -6 -6 -7 -7 -6 -6 -5 -4 -3 -2 -1 -1 -1 -1 -1 -1 -1 -1
-4 -4 -5 -6 -7 -7 -6 -6 -6 -6 -6 -6 -7 -7 -7 -7 -7 -6 -6 -6 -5 -5 -5 -5 -6 -6 -7 -7 -7 -7 -6 -6 -5 -4 -3 -2 -1 -1 -1 -1 -1 -1 -1
-4 -5 -5 -7 -8 -7 -7 -7 -7 -7 -7 -7 -7 -7 -7 -7 -7 -6 -6 -6 -6 -5 -6 -6 -6 -7 -7 -7 -7 -6 -6 -6 -5 -4 -3 -2 -2 -1 -0 0 0 0 1
-5 -5 -6 -7 -8 -8 -8 -8 -8 -8 -7 -7 -7 -7 -7 -7 -7 -6 -6 -6 -6 -6 -6 -6 -7 -6 -6 -6 -6 -5 -6 -5 -5 -4 -4 -3 -2 -2 -0 1 1 2 2
-6 -7 -7 -7 -8 -8 -8 -8 -8 -8 -8 -7 -7 -7 -7 -7 -6 -6 -6 -6 -6 -6 -6 -6 -6 -5 -5 -4 -4 -4 -4 -4 -4 -4 -4 -4 -3 -2 -1 -0 1 2 2
-7 -7 -7 -8 -9 -9 -9 -9 -9 -8 -8 -8 -7 -7 -7 -7 -6 -6 -6 -6 -6 -5 -5 -4 -4 -4 -4 -4 -3 -2 -2 -3 -3 -4 -4 -4 -3 -3 -2 -1 -0 0 1
-7 -7 -7 -8 -9 -9 -9 -9 -9 -8 -8 -8 -8 -7 -7 -7 -6 -6 -6 -5 -5 -4 -3 -3 -3 -3 -3 -3 -2 -1 -2 -2 -3 -3 -3 -3 -2 -2 -2 -2 -1 -1 -0
-7 -7 -7 -7 -7 -7 -7 -7 -7 -7 -7 -7 -7 -7 -6 -6 -6 -5 -5 -4 -4 -3 -3 -2 -2 -2 -2 -2 -1 -1 -1 -1 -1 -2 -2 -1 -1 -1 -2 -2 -1 -1 -1
-7 -7 -7 -6 -6 -5 -5 -5 -5 -5 -5 -5 -6 -5 -5 -4 -4 -3 -3 -3 -2 -2 -2 -1 -1 -1 -1 -1 -1 -0 -0 -0 -1 -1 -1 -1 -0 -0 -1 -1 -1 -1 -1
-7 -7 -6 -6 -5 -5 -4 -4 -3 -4 -4 -4 -4 -4 -3 -3 -2 -2 -2 -2 -1 -1 -1 -1 0 0 -0 0 0 -0 -1 -0 -0 -1 -0 -0 -0 0 0 -1 -1 -1 -1